Total_Precipitation_Accumulation
0.00 0.01 0.02 0.02 0.02 0.03 0.05 0.07 0.11 0.15 0.14 0.17 0.32 0.50 0.52 0.66 0.90 1.13 1.42 1.71 1.98 2.28 2.71 3.15 3.22 3.43 3.71 4.20 4.46 4.53 4.65 4.59 4.35 3.97 3.56 3.37 3.24 3.15 2.99 2.75 2.50 2.40 2.35 2.40
0.01 0.03 0.01 0.01 0.02 0.03 0.06 0.09 0.13 0.15 0.13 0.15 0.30 0.48 0.58 0.89 1.15 1.17 1.24 1.40 1.62 2.06 2.48 2.79 2.86 2.89 3.24 3.81 4.22 4.32 4.06 3.94 3.85 3.61 3.44 3.41 3.55 3.25 2.95 2.73 2.44 2.26 2.25 2.30
0.03 0.03 0.02 0.02 0.02 0.03 0.05 0.06 0.11 0.16 0.15 0.19 0.30 0.59 0.77 1.01 1.12 1.16 1.21 1.30 1.45 1.79 2.16 2.43 2.45 2.54 2.76 2.85 3.10 3.25 3.35 3.21 3.08 3.01 3.01 3.09 3.24 2.97 2.66 2.48 2.34 2.12 1.99 1.96
0.03 0.03 0.03 0.04 0.04 0.04 0.06 0.07 0.06 0.08 0.15 0.26 0.38 0.89 1.10 1.02 1.08 1.21 1.22 1.22 1.44 1.77 1.75 1.84 1.98 2.14 2.35 2.42 2.56 2.62 2.64 2.72 2.67 2.67 2.61 2.50 2.42 2.26 2.12 2.11 2.06 2.02 1.92 1.81
0.05 0.04 0.03 0.05 0.05 0.04 0.05 0.05 0.06 0.09 0.18 0.28 0.39 0.69 1.05 1.29 1.36 1.18 1.11 1.06 1.26 1.39 1.29 1.33 1.50 1.58 1.72 1.81 2.01 2.15 2.23 2.29 2.35 2.35 2.25 2.22 2.06 2.02 2.00 1.94 1.88 1.80 1.72 1.69
0.05 0.05 0.04 0.04 0.04 0.04 0.04 0.06 0.12 0.23 0.41 0.64 0.53 0.65 1.03 1.31 1.46 1.16 1.06 1.03 1.13 1.09 1.06 1.20 1.29 1.32 1.41 1.58 1.73 1.87 1.96 1.96 2.03 2.08 2.05 1.98 1.91 1.88 1.83 1.77 1.69 1.63 1.61 1.50
0.12 0.12 0.10 0.06 0.05 0.06 0.06 0.13 0.45 0.81 1.09 1.11 0.71 0.74 1.08 1.05 1.02 0.97 0.97 1.04 1.06 0.97 0.89 0.89 0.95 1.06 1.20 1.34 1.42 1.51 1.59 1.62 1.58 1.63 1.65 1.62 1.64 1.61 1.50 1.45 1.41 1.36 1.26 1.17
0.17 0.24 0.15 0.09 0.09 0.09 0.10 0.15 0.50 0.76 0.81 0.91 0.79 1.05 1.37 1.07 0.95 0.88 0.92 1.01 0.99 0.84 0.75 0.72 0.74 0.80 0.89 0.97 1.07 1.15 1.26 1.30 1.35 1.39 1.37 1.32 1.30 1.26 1.17 1.22 1.17 1.11 0.98 0.90
0.10 0.11 0.08 0.08 0.09 0.11 0.15 0.17 0.23 0.43 0.47 0.67 0.87 1.14 1.28 0.96 0.90 0.97 1.07 1.08 1.01 0.79 0.62 0.58 0.61 0.65 0.66 0.66 0.73 0.83 1.01 1.08 1.13 1.17 1.14 1.08 1.08 1.06 1.02 1.07 1.13 1.07 1.03 0.92
0.06 0.05 0.06 0.07 0.09 0.12 0.15 0.15 0.19 0.36 0.51 0.70 0.79 1.13 1.38 1.23 1.18 1.13 1.19 1.03 0.75 0.57 0.47 0.44 0.45 0.46 0.48 0.50 0.59 0.68 0.79 0.84 0.90 0.97 0.98 0.84 0.91 1.00 0.98 0.98 0.98 0.98 0.95 0.92
0.05 0.04 0.06 0.09 0.12 0.14 0.19 0.21 0.28 0.39 0.41 0.61 0.88 1.05 0.96 0.95 1.00 1.09 1.07 0.85 0.59 0.47 0.37 0.36 0.39 0.42 0.43 0.44 0.53 0.63 0.76 0.84 0.87 0.92 0.98 0.89 0.84 0.89 0.89 0.87 0.88 0.88 0.84 0.84
0.07 0.06 0.10 0.16 0.18 0.17 0.17 0.19 0.28 0.42 0.40 0.43 0.62 0.74 0.51 0.53 0.60 0.64 0.66 0.56 0.47 0.44 0.35 0.37 0.40 0.42 0.42 0.47 0.54 0.61 0.71 0.80 0.85 0.95 1.05 1.05 0.96 0.91 0.88 0.83 0.78 0.74 0.71 0.73
0.11 0.11 0.16 0.37 0.48 0.30 0.19 0.17 0.19 0.24 0.27 0.28 0.47 0.58 0.39 0.41 0.48 0.58 0.68 0.71 0.66 0.57 0.40 0.38 0.41 0.43 0.44 0.49 0.58 0.67 0.74 0.78 0.83 0.96 1.09 1.11 0.98 0.89 0.87 0.81 0.75 0.69 0.63 0.61
0.11 0.14 0.18 0.40 0.51 0.40 0.30 0.23 0.19 0.22 0.31 0.28 0.29 0.41 0.40 0.43 0.49 0.59 0.69 0.72 0.61 0.51 0.42 0.39 0.42 0.46 0.49 0.52 0.51 0.53 0.57 0.61 0.70 0.76 0.87 0.99 0.97 0.84 0.70 0.64 0.66 0.68 0.65 0.64
0.09 0.12 0.12 0.15 0.22 0.29 0.31 0.26 0.20 0.17 0.21 0.33 0.31 0.33 0.40 0.46 0.43 0.51 0.56 0.50 0.47 0.40 0.42 0.43 0.46 0.49 0.51 0.50 0.46 0.43 0.41 0.43 0.50 0.58 0.66 0.76 0.71 0.65 0.62 0.57 0.52 0.50 0.56 0.57
0.16 0.17 0.15 0.14 0.17 0.21 0.24 0.25 0.17 0.13 0.12 0.15 0.25 0.39 0.40 0.40 0.43 0.42 0.43 0.42 0.41 0.43 0.48 0.52 0.55 0.57 0.50 0.47 0.41 0.38 0.37 0.40 0.49 0.57 0.60 0.65 0.65 0.57 0.49 0.46 0.43 0.41 0.46 0.54
0.33 0.29 0.26 0.21 0.19 0.25 0.29 0.24 0.18 0.13 0.11 0.12 0.28 0.49 0.40 0.38 0.41 0.41 0.45 0.45 0.38 0.39 0.41 0.43 0.43 0.46 0.39 0.38 0.38 0.36 0.38 0.40 0.44 0.51 0.58 0.65 0.69 0.66 0.52 0.42 0.45 0.46 0.53 0.59
0.41 0.44 0.37 0.30 0.36 0.51 0.34 0.21 0.19 0.20 0.18 0.18 0.23 0.31 0.32 0.36 0.35 0.30 0.28 0.31 0.30 0.34 0.37 0.41 0.42 0.39 0.39 0.38 0.38 0.37 0.34 0.35 0.41 0.48 0.54 0.58 0.64 0.63 0.60 0.56 0.57 0.62 0.69 0.74
0.31 0.45 0.44 0.41 0.48 0.42 0.37 0.30 0.30 0.34 0.33 0.30 0.38 0.32 0.29 0.30 0.28 0.29 0.22 0.23 0.23 0.28 0.31 0.36 0.41 0.46 0.50 0.47 0.49 0.50 0.47 0.49 0.52 0.56 0.62 0.62 0.65 0.69 0.68 0.66 0.69 0.76 0.82 0.82
0.38 0.48 0.57 0.52 0.62 0.61 0.55 0.46 0.41 0.42 0.64 0.47 0.47 0.46 0.42 0.42 0.48 0.44 0.29 0.22 0.24 0.25 0.30 0.34 0.31 0.33 0.44 0.49 0.57 0.64 0.69 0.68 0.73 0.79 0.84 0.85 0.90 0.94 0.90 0.96 1.02 1.02 1.03 0.96
0.79 0.77 0.69 0.68 0.73 0.69 0.56 0.51 0.47 0.77 0.88 0.53 0.48 0.51 0.53 0.53 0.57 0.44 0.33 0.28 0.30 0.26 0.27 0.30 0.36 0.34 0.41 0.50 0.61 0.76 0.85 0.84 0.88 0.91 0.99 1.10 1.18 1.30 1.38 1.46 1.41 1.36 1.32 1.28
0.87 0.97 0.97 0.95 1.01 0.89 0.57 0.56 0.76 0.89 0.69 0.69 0.60 0.55 0.52 0.49 0.51 0.48 0.42 0.39 0.30 0.31 0.33 0.36 0.46 0.43 0.45 0.53 0.63 0.74 0.86 0.97 1.09 1.15 1.26 1.34 1.45 1.49 1.56 1.87 1.91 1.93 1.87 1.65
0.89 0.97 0.98 0.97 1.00 0.76 0.63 0.76 0.81 0.76 0.78 0.79 0.69 0.54 0.53 0.48 0.46 0.47 0.42 0.36 0.28 0.28 0.33 0.37 0.51 0.55 0.56 0.64 0.82 0.99 0.99 1.08 1.23 1.34 1.46 1.54 1.59 1.68 1.78 1.92 1.98 2.02 2.00 1.81
0.89 0.77 0.88 0.97 1.02 0.85 0.70 0.71 0.80 0.77 0.71 0.74 0.70 0.65 0.67 0.58 0.49 0.54 0.50 0.38 0.32 0.31 0.35 0.39 0.51 0.63 0.79 0.88 1.01 1.17 1.15 1.20 1.33 1.40 1.44 1.51 1.61 1.71 1.81 1.93 1.92 1.88 1.83 1.78
0.81 0.85 1.02 1.15 1.10 0.99 0.86 0.82 0.95 0.93 0.81 0.81 0.77 0.74 0.74 0.62 0.51 0.47 0.46 0.45 0.44 0.46 0.50 0.51 0.59 0.74 0.95 1.10 1.20 1.25 1.26 1.35 1.45 1.47 1.53 1.62 1.66 1.71 1.81 1.83 1.88 1.79 1.70 1.63
0.77 0.90 1.07 1.20 1.12 1.20 1.12 0.93 0.99 1.05 0.90 0.87 0.84 0.79 0.65 0.58 0.56 0.52 0.51 0.50 0.51 0.55 0.56 0.60 0.69 0.80 0.96 1.11 1.27 1.38 1.47 1.54 1.61 1.63 1.57 1.64 1.73 1.79 1.85 1.82 1.69 1.54 1.44 1.33